Tracking 22882 objects as of 18-Apr-2021
HD Live streaming from Space Station
objects crossing your sky now

BEIDOU 3M11

Track BEIDOU 3M11 now!
BEIDOU 3M11 is classified as:


NORAD ID: 43602
Int'l Code: 2018-067A
Perigee: 21,515.9 km
Apogee: 21,554.4 km
Inclination: 54.5 °
Period: 773.2 minutes
Semi major axis: 27906 km
RCS: Unknown
Launch date: August 24, 2018
Source: People's Republic of China (PRC)
Launch site: Xichang Space Center, China (XSC)
aabbcc
Your satellite tracking list
Your tracking list is empty




NASA's NSSDC Master Catalog

Two Line Element Set (TLE):
1 43602U 18067A   21108.90054580  .00000013  00000-0  00000+0 0  9993
2 43602  54.5024 245.2065 0006895   5.6708 148.0743  1.86231602 18011
Source of the keplerian elements: AFSPC